EW7614 Weather Reports


Display with metric or nautical units.
time (UTC)temp
F
wind
direction
speed
MPH
gust
MPH
rain 1hr
in
rain 24hr
in
rain mn
in
humidity
%
barometer
mb
20260507074559 54 302 0.0 1.0 0.00 0.00 0.00 74 1009.0
20260507073010 53 38 0.0 1.0 0.00 0.00 0.00 76 1009.2
20260507071606 52 83 0.0 1.0 0.00 0.00 0.00 81 1009.2
20260507070138 50 256 0.0 1.0 0.00 0.00 0.00 82 1009.3
20260507064541 48 283 0.0 1.0 0.00 0.00 0.00 81 1009.3
20260507063130 48 299 0.0 1.0 0.00 0.00 0.00 84 1009.3
20260507061538 47 306 1.0 3.0 0.00 0.00 0.00 84 1009.3
20260507060120 47 220 0.0 0.0 0.00 0.00 0.00 84 1009.2
20260507054512 47 215 0.0 0.0 0.00 0.00 0.00 84 1009.0
20260507053120 46 214 0.0 0.0 0.00 0.00 0.00 86 1008.8
20260507051519 46 214 0.0 0.0 0.00 0.00 0.00 84 1008.7
20260507050054 46 214 0.0 0.0 0.00 0.00 0.00 85 1008.7
20260507044516 45 213 0.0 0.0 0.00 0.00 0.00 88 1008.5
20260507043108 44 215 0.0 0.0 0.00 0.00 0.00 88 1008.4
20260507041538 44 259 0.0 2.0 0.00 0.00 0.00 89 1008.3
20260507040126 44 273 0.0 0.0 0.00 0.00 0.00 89 1008.3
20260507034538 44 277 0.0 0.0 0.00 0.00 0.00 88 1008.0
20260507033134 44 273 0.0 0.0 0.00 0.00 0.00 87 1007.9
20260507031554 44 273 0.0 1.0 0.00 0.00 0.00 86 1007.9
20260507030133 44 52 0.0 1.0 0.00 0.00 0.00 87 1007.8
20260507024602 43 271 0.0 0.0 0.00 0.00 0.00 87 1008.0
20260507023040 43 272 0.0 1.0 0.00 0.00 0.00 85 1007.9
20260507021631 44 197 0.0 0.0 0.00 0.00 0.00 85 1007.9
20260507020050 45 197 0.0 0.0 0.00 0.00 0.00 82 1007.7
20260507014510 46 148 0.0 0.0 0.00 0.00 0.00 81 1007.6
20260507013053 47 74 0.0 1.0 0.00 0.00 0.00 77 1007.5
20260507011514 48 266 0.0 1.0 0.00 0.00 0.00 76 1007.4
20260507010109 49 71 0.0 1.0 0.00 0.00 0.00 75 1007.4
20260507004532 49 151 0.0 2.0 0.00 0.00 0.00 74 1007.2
20260507003120 49 114 0.0 1.0 0.00 0.00 0.00 74 1007.1
20260507001549 50 161 0.0 6.0 0.00 0.00 0.00 72 1007.0
20260507000129 50 147 0.0 7.0 0.00 0.00 0.00 75 1007.0
20260506234544 49 109 0.0 1.0 0.00 0.00 0.00 73 1007.1
20260506233125 49 146 0.0 8.0 0.00 0.00 0.00 73 1006.9
20260506231544 50 173 4.0 9.0 0.00 0.00 0.00 71 1006.9
20260506230131 50 135 0.0 6.0 0.00 0.00 0.00 73 1006.8
20260506224542 50 135 0.0 6.0 0.00 0.00 0.00 71 1006.6
20260506223134 51 160 3.0 8.0 0.00 0.00 0.00 70 1006.6
20260506221544 51 188 4.0 8.0 0.00 0.00 0.00 71 1006.6
20260506220001 51 78 1.0 6.0 0.00 0.00 0.00 74 1006.5
20260506214606 52 167 2.0 7.0 0.00 0.00 0.00 73 1006.2
20260506213025 51 148 1.0 6.0 0.00 0.00 0.00 72 1006.1
20260506211608 50 105 1.0 3.0 0.00 0.00 0.00 77 1005.9
20260506210021 50 320 0.0 6.0 0.00 0.00 0.00 74 1005.8
20260506204610 48 252 0.0 1.0 0.00 0.00 0.00 80 1005.6
20260506203029 51 200 0.0 5.0 0.00 0.00 0.00 74 1005.4
20260506201623 49 187 0.0 1.0 0.00 0.00 0.00 79 1005.2
20260506200044 51 243 0.0 1.0 0.00 0.00 0.00 78 1005.0
20260506194631 52 209 0.0 1.0 0.00 0.00 0.00 76 1004.8
20260506193044 53 195 2.0 5.0 0.00 0.00 0.00 74 1004.6
20260506191504 54 274 0.0 2.0 0.00 0.00 0.00 72 1004.6
20260506184522 55 266 3.0 9.0 0.00 0.00 0.00 68 1004.0
20260506183130 57 295 7.0 10.0 0.00 0.00 0.00 62 1003.7
20260506181555 59 286 3.0 10.0 0.00 0.00 0.00 55 1003.5
20260506180009 60 278 4.0 16.0 0.00 0.00 0.00 52 1003.1
20260506174600 61 200 4.0 10.0 0.00 0.00 0.00 49 1002.7
20260506173019 61 292 7.0 10.0 0.00 0.00 0.00 48 1002.4
20260506171613 62 284 5.0 13.0 0.00 0.00 0.00 46 1002.1
20260506170024 62 274 3.0 11.0 0.00 0.00 0.00 46 1001.9
20260506164612 63 243 5.0 17.0 0.00 0.00 0.00 48 1001.7
20260506163037 64 254 1.0 3.0 0.00 0.00 0.00 52 1001.7
20260506161623 65 102 0.0 9.0 0.00 0.00 0.00 44 1001.3
20260506160036 65 115 1.0 7.0 0.00 0.00 0.00 44 1001.1
20260506154619 65 134 0.0 5.0 0.00 0.00 0.00 44 1000.9
20260506153039 66 191 2.0 14.0 0.00 0.00 0.00 42 1000.6
20260506151630 67 107 8.0 18.0 0.00 0.00 0.00 39 1000.6
20260506150046 68 74 0.0 4.0 0.00 0.00 0.00 39 1000.4
20260506144629 68 100 0.0 2.0 0.00 0.00 0.00 42 1000.4
20260506143038 69 63 0.0 6.0 0.00 0.00 0.00 38 1000.2
20260506141618 69 86 0.0 3.0 0.00 0.00 0.00 39 1000.3
20260506140036 69 236 1.0 4.0 0.00 0.00 0.00 39 1000.3
20260506134605 70 93 1.0 5.0 0.00 0.00 0.00 37 1000.5
20260506133018 70 51 2.0 9.0 0.00 0.00 0.00 36 1000.6
20260506131600 70 61 2.0 7.0 0.00 0.00 0.00 35 1000.9
20260506130016 69 51 4.0 19.0 0.00 0.00 0.00 36 1000.7
20260506124556 71 185 4.0 10.0 0.00 0.00 0.00 36 1001.1
20260506123015 71 102 2.0 13.0 0.00 0.00 0.00 37 1000.8
20260506121559 70 165 2.0 9.0 0.00 0.00 0.00 39 1001.2
20260506120130 71 120 1.0 8.0 0.00 0.00 0.00 40 1001.1
20260506114529 70 238 5.0 12.0 0.00 0.00 0.00 38 1001.6
20260506113107 70 84 0.0 5.0 0.00 0.00 0.00 43 1001.7
20260506111509 69 360 1.0 13.0 0.00 0.00 0.00 45 1001.8
20260506110047 69 67 3.0 12.0 0.00 0.00 0.00 40 1001.8
20260506104617 69 236 0.0 9.0 0.00 0.00 0.00 40 1001.9
20260506103024 69 109 1.0 7.0 0.00 0.00 0.00 43 1002.1
20260506101510 67 323 1.0 3.0 0.00 0.00 0.00 42 1002.4
20260506100115 66 299 1.0 7.0 0.00 0.00 0.00 50 1002.6
20260506094531 65 266 3.0 8.0 0.00 0.00 0.00 51 1002.8
20260506093105 61 267 0.0 2.0 0.00 0.00 0.00 58 1003.3
20260506091502 60 257 0.0 2.0 0.00 0.00 0.00 59 1003.5
20260506090029 59 305 1.0 2.0 0.00 0.00 0.00 62 1003.3
20260506084603 59 238 0.0 3.0 0.00 0.00 0.00 64 1003.5
20260506083001 58 215 0.0 2.0 0.00 0.00 0.00 62 1003.6
20260506081537 57 213 0.0 3.0 0.00 0.00 0.00 61 1003.7
20260506080111 56 205 0.0 0.0 0.00 0.00 0.00 69 1003.9